Wetbulb
45.66 45.99 45.64 45.69 45.85 45.61 45.97 45.82 47.34 46.68 46.24 45.89 45.61 45.45 45.41 45.44 46.06 43.42 40.82 43.54 41.15 38.89 41.19 45.25 44.72 41.26 41.78 41.09 35.49 38.84 41.61 41.24 36.42 32.90 30.14 30.53 28.88 35.20 33.38 37.18 35.29 35.09 31.30 26.09 24.49 22.17 27.60 40.13 38.73 34.18 36.95 38.33 39.78 39.43
45.14 45.52 45.45 45.38 45.38 45.05 45.54 47.07 46.47 46.06 45.76 45.45 45.16 45.22 45.29 45.52 45.55 44.91 40.26 44.06 48.10 42.39 41.48 45.43 44.52 45.16 45.82 45.11 42.30 43.92 41.08 41.66 41.95 37.51 33.84 33.97 31.76 32.48 34.12 31.55 37.87 34.47 37.88 34.36 34.61 34.24 40.59 39.77 39.28 39.39 40.26 40.76 41.49 41.19
44.55 44.88 44.98 44.88 44.85 45.50 46.59 46.18 45.55 45.44 45.13 44.96 44.76 45.14 45.33 45.31 45.29 44.74 42.10 43.95 44.76 40.08 40.34 42.08 41.79 46.31 48.37 48.59 49.02 43.06 42.80 46.27 43.91 45.48 40.07 39.33 34.14 36.28 31.97 32.84 36.79 38.44 40.02 35.12 35.89 38.79 39.40 40.56 41.25 41.04 42.15 41.72 42.05 41.28
43.94 45.12 45.24 45.52 45.79 45.42 45.08 44.98 44.87 44.81 44.52 44.27 44.88 44.83 45.09 45.40 45.92 44.53 41.46 45.56 43.77 41.33 34.96 41.45 51.33 49.12 51.64 51.41 50.06 47.84 48.41 47.38 45.75 44.15 37.95 36.94 35.36 40.85 35.29 39.11 37.17 39.31 41.26 37.21 35.45 39.65 40.65 41.55 41.58 40.89 39.74 41.05 40.48 38.31
43.43 43.34 43.38 43.66 44.17 44.19 44.32 44.27 43.98 44.20 44.32 44.83 44.64 44.93 45.29 45.99 45.83 44.08 44.63 45.76 45.85 41.98 36.09 38.37 44.94 49.56 50.95 51.00 50.81 48.63 48.43 45.01 41.91 38.43 34.06 36.62 40.31 39.97 37.58 38.01 35.49 40.65 39.19 36.46 35.81 41.84 41.15 40.28 40.65 39.49 38.99 38.51 38.14 35.77
43.38 43.30 43.41 43.46 43.42 43.57 43.61 43.63 44.02 44.35 44.31 44.64 45.03 45.14 45.10 45.48 45.31 43.86 40.07 45.60 46.75 46.52 38.46 32.84 44.93 48.17 51.26 51.28 49.98 47.08 47.97 46.48 44.20 40.66 36.76 41.17 43.38 40.24 33.15 31.73 40.15 42.17 42.57 42.62 41.88 43.33 39.76 39.01 37.46 38.03 36.76 35.97 36.12 35.62
43.40 43.69 43.73 43.81 43.74 43.85 44.07 44.12 44.26 44.45 44.42 44.47 44.72 44.77 45.08 45.39 44.44 40.77 38.24 42.32 47.52 46.50 38.25 32.88 36.14 46.27 49.03 49.18 46.17 45.15 44.04 43.58 43.68 41.24 37.11 40.38 41.04 38.49 29.92 30.54 39.43 40.50 40.38 40.83 40.06 40.13 36.94 37.27 36.15 36.23 35.73 35.49 36.09 35.13
42.92 43.38 43.56 43.85 43.75 43.63 43.80 43.72 44.00 44.24 44.51 44.71 44.94 44.86 45.00 45.59 45.66 41.68 46.76 47.35 46.26 43.70 41.51 32.05 35.17 40.30 46.81 42.33 41.26 42.97 39.56 40.46 41.11 40.73 38.52 35.37 39.79 36.09 34.25 38.74 39.93 38.91 38.94 37.77 37.29 38.16 37.89 35.99 35.16 33.95 34.55 34.36 32.73 31.58
44.20 43.86 43.65 43.71 43.63 43.94 43.83 43.15 44.10 44.83 44.94 45.57 45.52 46.29 45.15 42.70 38.46 41.09 46.45 46.85 47.79 43.09 33.79 32.61 33.51 34.03 44.07 41.22 40.47 39.38 39.94 34.77 39.54 35.69 35.87 39.33 33.33 33.78 39.45 40.37 38.98 39.03 39.56 36.46 37.19 36.84 36.21 33.52 32.87 32.58 32.97 31.87 30.31 29.66
44.40 44.56 44.46 43.84 44.12 44.59 44.56 44.45 44.88 45.30 45.39 45.81 44.28 39.76 33.51 38.01 46.61 46.80 44.96 40.28 40.31 40.17 37.16 33.51 38.64 35.89 40.81 36.00 34.59 35.43 34.41 34.22 33.32 35.52 39.74 33.71 34.79 37.79 38.68 40.52 41.25 40.41 38.49 37.59 34.25 32.77 32.50 32.25 31.97 31.86 31.48 32.01 31.01 30.14
44.58 44.64 44.77 44.54 44.65 44.55 44.80 45.38 45.27 45.92 45.20 39.01 37.43 36.76 41.98 47.32 44.73 39.41 32.38 32.94 33.68 32.59 35.28 36.00 38.76 37.00 40.45 34.69 32.97 34.21 32.59 31.84 32.02 33.24 34.59 33.09 33.12 35.18 38.29 39.11 39.77 38.97 38.43 38.60 38.03 36.62 36.03 34.43 32.37 29.70 29.28 29.54 29.88 28.95
44.81 44.55 44.07 44.13 44.03 44.27 44.61 45.12 45.33 41.76 38.79 39.99 41.98 45.55 43.88 40.97 34.77 31.69 31.79 31.04 31.39 31.18 34.89 35.82 36.67 38.95 36.04 39.00 33.85 32.93 32.70 32.10 30.80 35.92 33.62 31.34 32.78 35.33 36.48 36.65 37.08 37.18 37.04 36.21 36.48 35.27 34.66 32.68 31.87 30.65 29.26 28.40 27.12 25.50
44.40 43.59 44.11 44.85 44.72 44.98 45.38 44.69 44.98 44.85 44.56 43.86 41.55 38.42 36.22 32.77 31.13 29.14 28.12 26.73 30.56 32.91 34.69 34.60 33.33 34.51 34.75 36.02 32.77 33.12 31.34 29.98 33.23 32.44 31.62 30.63 35.87 37.41 37.10 37.08 36.90 37.26 36.17 35.38 34.52 33.89 32.35 30.97 30.77 28.70 26.08 25.24 24.89 23.95
43.90 43.98 44.21 44.48 44.65 44.78 45.06 44.74 44.47 43.28 40.15 35.30 33.48 30.98 31.46 30.53 31.25 31.39 31.76 32.55 32.59 32.59 33.68 34.01 32.74 33.59 32.40 32.70 32.38 31.39 31.32 32.25 28.19 26.17 26.60 29.70 35.32 35.42 36.90 35.89 34.61 32.93 32.15 31.40 30.62 30.31 29.08 27.76 25.98 25.42 24.37 24.05 23.41 22.25
44.25 44.25 44.58 44.42 44.64 44.60 44.52 44.35 44.17 42.30 36.56 31.64 31.74 27.42 28.48 30.72 31.99 31.99 32.20 32.93 32.74 34.18 33.32 33.08 32.31 32.85 31.55 31.13 30.82 31.51 29.56 25.50 23.62 21.51 29.16 32.87 33.56 33.16 32.49 32.64 31.98 30.95 30.16 28.99 28.13 26.18 25.47 24.90 23.76 23.15 23.28 23.15 22.06 20.53
44.21 43.77 42.80 44.44 44.47 44.81 43.96 43.42 41.67 39.79 33.30 31.45 29.69 30.77 31.82 31.93 31.08 31.45 32.26 32.08 33.63 32.96 32.85 33.05 30.95 30.53 29.54 29.85 24.73 24.41 20.24 18.07 27.17 30.72 32.93 33.10 31.85 31.41 30.96 30.70 30.14 29.68 28.64 27.61 26.98 26.30 25.63 24.71 23.56 22.00 21.53 20.63 19.71 18.93
42.95 39.74 44.87 44.80 44.41 43.96 43.38 39.43 35.63 31.81 31.27 29.94 28.06 30.69 30.90 30.71 29.62 30.54 31.39 31.03 33.94 33.27 30.33 27.55 28.96 29.01 31.17 28.25 27.31 28.56 25.63 28.61 30.30 30.65 31.44 31.74 30.28 29.01 29.08 28.93 28.76 28.46 27.46 26.64 25.73 25.04 24.22 23.72 22.37 21.22 19.55 20.56 20.89 19.89
39.73 42.64 44.55 44.09 43.33 42.06 39.22 36.60 31.94 31.86 28.94 30.11 27.42 29.01 28.39 27.92 28.27 28.80 30.44 31.26 32.17 31.95 31.44 29.01 30.77 26.16 24.63 24.84 24.64 28.55 29.34 30.05 30.74 30.73 30.87 31.02 30.52 30.35 29.94 28.19 27.81 27.30 26.19 25.47 24.59 23.99 23.89 23.29 22.34 21.30 21.62 21.09 20.46 20.34
40.48 42.37 43.92 43.69 42.21 37.69 32.68 33.09 33.09 28.16 29.22 30.69 30.24 30.59 29.46 28.27 29.27 29.86 30.18 31.15 31.08 30.94 27.36 24.74 20.70 21.33 22.36 27.30 28.27 29.02 29.56 29.28 27.19 27.83 28.78 29.60 29.32 28.27 27.65 27.10 26.49 25.96 25.60 25.27 24.69 23.87 23.88 23.84 22.64 22.53 22.13 21.54 19.39 18.50
40.66 40.37 41.97 42.86 41.85 34.02 31.21 31.58 34.89 31.02 28.19 27.88 28.27 25.53 26.27 25.22 26.84 27.21 26.36 28.31 27.73 25.56 21.25 19.44 18.80 20.70 22.22 26.20 30.27 30.44 30.02 30.02 27.92 24.86 24.07 25.56 27.06 26.74 25.70 25.02 24.23 24.17 23.36 23.06 22.71 22.73 21.57 19.77 19.49 18.87 18.41 18.08 16.31 15.03
37.95 37.42 38.07 39.55 36.60 34.59 31.93 31.43 31.01 31.78 31.01 27.77 29.18 28.38 25.63 25.52 22.30 21.18 21.25 24.65 20.42 20.73 18.77 20.67 20.78 22.90 25.15 25.98 27.63 27.47 27.06 27.64 26.43 25.73 23.85 22.46 24.62 24.39 23.70 23.61 23.33 22.41 20.44 19.05 17.62 17.01 17.10 16.12 16.28 15.49 13.17 11.34 12.31 13.21
32.09 36.11 31.25 33.67 31.75 31.31 30.84 31.93 31.40 32.37 31.12 29.73 29.27 28.64 24.72 22.03 20.74 20.50 22.47 16.83 16.21 16.77 21.23 21.05 20.76 22.38 21.92 21.77 23.12 24.56 24.67 24.15 23.83 22.67 22.51 22.39 19.89 19.60 19.34 19.98 18.64 16.78 16.35 15.84 15.46 14.23 14.78 15.38 14.54 12.91 11.28 10.64 13.23 12.10
32.66 30.97 26.64 27.03 25.91 26.22 26.74 32.52 28.98 30.43 25.94 26.27 27.56 24.85 22.80 21.56 22.39 23.83 15.54 16.97 16.34 19.19 20.93 22.56 22.11 22.45 21.19 22.22 22.69 22.43 23.10 21.57 19.43 19.06 18.55 17.67 17.59 17.47 16.39 16.70 17.58 15.55 14.26 14.65 15.33 13.49 11.51 11.46 10.18 8.42 7.85 7.31 5.67 4.61
30.07 19.78 15.52 15.13 19.38 15.41 22.33 24.70 29.63 27.91 26.87 25.22 23.88 21.87 21.41 21.15 22.73 16.41 11.79 13.49 16.07 17.90 18.52 19.26 21.19 19.74 19.29 18.13 16.36 17.76 20.10 20.29 18.06 17.80 18.08 15.86 13.09 12.41 12.98 12.27 12.53 12.47 12.49 11.64 9.75 7.69 6.91 4.38 3.03 3.05 0.51 -3.30 -2.62 -3.84
18.85 18.44 14.57 10.92 14.18 14.00 12.36 16.09 21.50 22.84 20.97 22.60 21.82 19.71 19.53 22.08 13.82 11.97 10.52 12.30 13.67 13.69 15.46 17.60 16.49 16.96 15.12 14.75 15.11 15.18 17.32 17.05 14.54 12.85 15.34 15.23 12.84 11.37 9.18 8.87 8.47 8.58 9.25 4.60 1.36 -0.91 -3.16 -2.55 -4.01 -6.09 -6.01 -13.79 -4.56 -10.16
13.89 19.00 18.74 16.11 20.62 15.02 13.41 9.76 13.60 16.27 18.25 18.58 18.24 18.51 17.67 13.29 8.86 7.21 10.78 12.91 12.45 13.27 12.80 14.37 14.44 12.89 11.54 13.10 12.16 12.14 12.89 14.89 12.99 9.11 9.64 10.73 11.52 9.97 7.19 5.35 4.57 5.57 6.02 -0.23 -2.74 -7.08 -8.17 -10.70 -13.24 -10.52 -13.60 -9.80 -11.79 -16.51
12.32 15.17 20.75 22.06 20.31 19.96 11.62 12.20 15.15 11.73 9.80 9.14 10.67 9.69 9.90 4.84 5.12 10.52 14.29 14.73 13.16 12.55 12.89 13.57 13.39 12.01 10.93 10.83 11.64 11.59 11.20 10.75 9.46 8.61 8.86 8.07 7.85 7.75 5.50 2.23 1.03 4.38 5.81 -0.26 -8.35 -9.62 -9.25 -11.79 -13.79 -14.69 -16.14 -19.04 -19.22 -15.24
20.22 17.68 7.74 7.88 7.94 12.11 1.05 3.41 5.69 6.99 8.72 12.62 6.17 -0.66 -3.14 -4.56 4.45 12.09 13.16 14.13 12.71 12.12 10.62 9.83 9.03 8.37 7.23 7.29 7.07 7.27 7.35 6.47 7.36 6.37 5.88 4.09 3.13 2.17 0.82 -0.30 -0.95 3.80 -6.00 -9.98 -10.16 -12.15 -8.89 -7.62 -9.25 -11.25 -14.87 -14.87 -15.78 -17.23
11.05 13.64 10.18 1.77 2.48 4.72 6.06 4.81 3.41 6.78 10.15 6.30 -6.25 -4.00 0.50 6.72 8.09 10.70 12.56 12.46 12.12 9.80 6.26 4.32 1.70 2.53 3.89 3.31 1.05 -0.32 -1.75 -5.56 -4.73 -7.92 -13.06 -15.42 -13.06 -6.93 -8.17 -12.88 -12.70 -11.61 -13.97 -11.25 -4.36 1.08 2.51 -3.63 -5.08 -11.25 -12.15 -15.42 -16.69 -22.85
10.89 9.62 4.84 -1.41 -1.15 0.30 3.16 5.56 0.45 5.28 9.72 6.11 8.85 7.82 6.70 6.68 8.47 11.42 9.77 8.55 6.05 2.67 0.12 -6.90 -11.79 -8.58 -12.52 -6.92 -10.16 -2.29 -5.27 -10.18 -11.36 -10.59 -14.15 -15.78 -12.88 -12.70 -19.77 -19.22 -18.68 -19.41 -22.85 -22.85 -21.04 -14.72 -6.53 -14.69 -11.28 -17.08 -16.73 -17.99 -19.22 -20.86
6.68 7.43 3.65 2.80 2.56 2.38 6.99 4.39 8.58 5.58 2.31 3.23 1.88 1.13 -1.07 2.04 3.85 6.88 5.08 1.65 1.42 1.04 -0.23 -6.17 -7.62 -16.87 -9.80 -14.51 -16.14 -13.79 -9.25 -8.71 -14.51 -12.34 -12.15 -15.05 -17.96 -19.59 -20.13 -20.31 -21.22 -23.94 -24.30 -23.76 -23.39 -23.03 -22.31 -23.21 -25.93 -26.48 -24.48 -21.58 -21.40 -24.12
3.12 -0.55 1.91 1.88 2.50 4.50 1.89 -6.20 -4.54 -0.99 -1.34 -3.50 -2.43 -5.29 -6.41 -7.44 -8.71 -2.05 0.25 -2.79 -4.57 -7.08 -11.43 -15.96 -11.07 -8.17 -14.15 -15.24 -17.96 -18.14 -12.88 -15.78 -15.42 -13.06 -10.34 -15.78 -16.87 -18.68 -19.04 -17.96 -22.49 -23.21 -23.03 -23.21 -24.12 -23.76 -23.94 -24.66 -26.11 -27.02 -27.38 -26.48 -26.84 -27.93
-3.24 -4.04 -3.34 1.20 3.81 4.23 5.25 3.50 -2.91 -1.02 -2.10 -3.45 -3.81 -10.89 -15.96 -11.70 -8.73 -4.07 -2.77 -12.52 -10.35 -11.25 -10.89 -11.61 -10.70 -11.25 -10.89 -13.97 -15.42 -18.14 -16.51 -19.41 -17.41 -3.81 -4.90 -7.62 -11.43 -11.61 -18.68 -22.67 -24.48 -23.94 -20.86 -23.39 -25.39 -25.39 -23.58 -22.67 -24.66 -26.30 -27.75 -29.74 -28.29 -29.92
MSLP
975.80 975.39 976.54 978.14 979.96 981.67 983.21 984.75 985.58 988.13 990.53 992.94 995.17 997.15 999.00 1000.67 1002.11 1003.43 1004.13 1006.09 1006.94 1005.34 1004.18 1003.10 1002.74 1003.04 1003.97 1004.49 1005.03 1005.64 1007.37 1007.49 1008.58 1009.38 1009.95 1009.62 1009.32 1008.81 1008.55 1008.38 1008.47 1009.38 1011.01 1012.18 1012.32 1011.62 1009.84 1007.78 1008.34 1008.25 1007.45 1007.47 1007.94 1008.71
977.79 977.63 978.31 979.60 981.02 982.34 983.49 984.75 986.38 988.75 991.06 993.30 995.38 997.22 998.93 1000.45 1001.95 1003.48 1004.58 1005.82 1005.70 1004.60 1004.76 1004.38 1003.44 1002.78 1002.19 1002.53 1004.12 1004.40 1004.41 1005.37 1006.42 1007.77 1008.89 1008.96 1009.00 1008.68 1008.20 1008.57 1008.09 1008.32 1007.97 1009.16 1009.52 1008.68 1007.46 1007.00 1006.69 1006.65 1007.06 1007.60 1008.20 1008.84
979.99 980.03 980.45 981.30 982.24 983.02 984.01 985.66 987.60 989.86 991.95 993.98 995.76 997.48 999.09 1000.62 1001.97 1003.29 1004.50 1005.66 1004.77 1004.82 1004.73 1004.24 1002.66 1001.89 1002.24 1002.43 1002.35 1003.37 1004.17 1004.43 1005.11 1005.41 1006.96 1007.80 1007.79 1007.77 1008.10 1007.63 1007.45 1007.16 1007.22 1007.81 1008.47 1007.41 1007.29 1006.95 1006.95 1007.10 1007.27 1007.67 1008.19 1008.82
982.13 981.77 982.09 982.55 983.27 984.31 985.66 987.41 989.33 991.22 993.07 994.75 996.34 998.00 999.50 1000.83 1002.09 1003.04 1004.38 1004.70 1004.01 1004.72 1005.44 1003.00 1001.76 1001.56 1001.27 1001.55 1001.94 1002.14 1002.84 1003.80 1004.78 1005.62 1006.61 1007.00 1007.02 1006.52 1006.94 1006.24 1006.50 1006.11 1006.53 1007.32 1007.68 1007.38 1007.37 1007.13 1007.16 1007.28 1007.91 1008.25 1008.82 1009.70
985.27 984.91 984.80 985.17 985.86 986.93 988.24 989.71 991.18 992.75 994.23 995.71 997.19 998.59 1000.03 1001.11 1002.23 1003.93 1004.51 1004.22 1004.10 1004.70 1004.61 1003.29 1002.03 1001.34 1001.14 1001.39 1001.61 1002.12 1002.89 1003.82 1004.87 1006.27 1006.67 1006.82 1006.37 1006.21 1007.08 1006.68 1006.02 1005.52 1005.48 1006.12 1005.61 1005.18 1005.45 1005.91 1006.67 1007.50 1008.42 1009.09 1009.52 1010.18
987.82 987.72 987.79 988.14 988.78 989.62 990.59 991.62 992.79 994.01 995.35 996.69 997.99 999.18 1000.36 1001.42 1002.84 1003.64 1003.86 1003.89 1004.28 1004.78 1005.21 1003.99 1002.23 1001.39 1001.16 1001.03 1001.53 1002.17 1002.67 1003.67 1004.65 1005.50 1006.47 1006.33 1006.03 1005.99 1007.19 1006.92 1005.11 1004.52 1004.40 1004.43 1004.73 1005.34 1006.35 1006.59 1007.25 1007.77 1008.85 1009.74 1010.28 1011.01
989.79 989.78 989.90 990.21 990.70 991.35 992.15 993.07 994.08 995.22 996.36 997.43 998.70 999.85 1000.73 1001.70 1002.51 1002.93 1003.40 1002.66 1003.86 1005.11 1005.71 1004.96 1003.00 1001.65 1001.24 1001.50 1002.35 1003.07 1003.44 1004.09 1004.69 1005.63 1006.10 1006.17 1006.28 1005.89 1007.20 1006.54 1005.14 1005.03 1005.02 1005.16 1005.67 1006.32 1007.58 1007.76 1008.27 1008.75 1009.54 1010.59 1011.23 1012.38
991.24 991.35 991.54 991.79 992.20 992.73 993.41 994.26 995.18 996.08 997.09 998.23 999.14 1000.10 1000.96 1002.02 1002.95 1003.28 1002.81 1002.94 1003.03 1004.39 1005.52 1005.16 1003.10 1002.12 1001.81 1002.09 1002.98 1003.59 1004.29 1004.68 1005.21 1005.70 1006.07 1006.15 1006.48 1006.63 1006.43 1005.70 1005.71 1005.74 1005.59 1006.01 1006.77 1007.11 1007.36 1008.39 1009.40 1010.13 1010.91 1011.29 1012.31 1013.45
992.42 992.50 992.70 992.93 993.31 993.74 994.28 995.13 995.97 996.60 997.50 998.44 999.62 1000.50 1001.40 1002.20 1003.12 1003.10 1002.58 1003.15 1003.59 1004.14 1004.90 1004.47 1003.55 1002.86 1002.51 1002.97 1003.45 1003.92 1004.51 1005.50 1005.95 1005.95 1005.96 1005.84 1006.54 1005.77 1004.92 1005.29 1005.74 1006.02 1005.22 1006.22 1007.26 1008.07 1008.23 1008.66 1010.35 1011.21 1012.04 1012.57 1013.25 1014.37
993.68 993.78 993.96 994.06 994.21 994.32 994.81 995.49 996.39 997.27 998.07 998.85 999.62 1000.53 1001.90 1001.77 1001.81 1002.42 1003.52 1004.23 1004.23 1004.26 1004.76 1004.37 1003.73 1003.45 1003.38 1003.70 1004.24 1004.52 1004.74 1005.66 1006.08 1006.05 1005.87 1006.00 1005.59 1004.72 1004.48 1004.53 1004.43 1005.26 1005.29 1005.98 1007.44 1008.80 1009.47 1010.65 1010.62 1011.36 1011.68 1012.89 1014.03 1015.11
994.63 994.86 994.95 995.15 995.48 995.98 996.40 996.73 997.17 997.87 998.83 999.46 1000.00 1000.37 1001.24 1001.74 1002.15 1002.66 1003.44 1003.74 1003.92 1004.39 1004.19 1003.85 1003.63 1003.67 1003.95 1004.17 1004.81 1005.09 1005.09 1005.52 1005.87 1005.82 1005.75 1006.35 1005.37 1004.28 1004.35 1004.75 1004.79 1005.61 1006.50 1006.18 1006.62 1008.12 1009.50 1010.65 1010.81 1011.14 1013.12 1014.20 1014.67 1015.48
995.26 995.37 996.03 996.76 997.36 997.76 997.90 998.19 998.44 998.94 999.43 999.48 999.21 999.81 1000.98 1001.76 1001.94 1002.15 1002.83 1003.67 1003.93 1003.87 1003.55 1003.32 1003.53 1003.70 1004.42 1004.45 1005.59 1004.91 1005.10 1005.89 1005.69 1005.61 1006.01 1006.43 1005.42 1005.17 1005.31 1005.77 1006.21 1006.51 1006.74 1007.48 1008.12 1009.14 1010.31 1011.29 1012.08 1012.72 1014.11 1015.09 1016.09 1017.19
996.11 997.02 997.49 997.83 998.31 998.58 998.85 999.24 999.28 999.73 999.46 999.32 999.21 1000.65 1001.19 1002.06 1002.36 1002.34 1002.96 1003.87 1003.59 1002.92 1002.81 1003.04 1003.75 1004.12 1004.83 1005.06 1005.01 1004.66 1005.43 1006.21 1006.18 1006.32 1006.52 1006.30 1006.32 1006.39 1006.65 1006.94 1007.40 1007.76 1008.18 1009.04 1009.92 1010.74 1011.65 1012.68 1013.59 1014.18 1015.62 1016.92 1017.58 1018.42
997.09 997.70 998.15 998.62 998.99 999.24 999.41 1000.04 1000.55 1000.51 1001.02 1000.65 1000.18 1000.74 1001.40 1001.72 1002.02 1002.40 1002.75 1002.76 1003.06 1003.05 1003.03 1003.20 1003.75 1004.27 1004.89 1005.09 1005.19 1005.47 1006.00 1006.00 1006.87 1007.18 1006.96 1006.99 1007.19 1007.43 1007.55 1008.01 1008.33 1009.33 1009.88 1010.62 1011.58 1012.48 1013.25 1013.93 1014.93 1016.03 1017.17 1017.87 1018.37 1019.34
997.83 998.19 998.70 999.51 999.76 1000.12 1000.30 1000.54 1000.82 1001.39 1001.60 1001.72 1001.52 1001.75 1002.10 1002.53 1002.60 1002.85 1002.78 1002.86 1003.32 1003.41 1003.50 1003.50 1004.16 1004.59 1005.26 1005.70 1006.05 1006.20 1006.75 1007.17 1007.46 1007.92 1007.83 1007.91 1008.17 1008.39 1008.87 1009.37 1009.91 1010.71 1011.55 1012.30 1012.95 1013.78 1014.80 1015.64 1016.46 1017.85 1018.73 1019.07 1019.86 1020.81
998.21 998.81 999.29 999.50 1000.13 1000.83 1001.28 1001.69 1002.36 1002.74 1002.85 1002.97 1002.79 1002.74 1002.78 1002.81 1003.26 1002.91 1003.62 1003.66 1003.82 1003.70 1003.50 1003.82 1004.86 1005.46 1006.11 1006.25 1006.76 1007.44 1007.86 1008.37 1008.66 1008.58 1008.68 1009.02 1009.42 1009.91 1010.50 1011.14 1011.76 1012.23 1012.86 1013.68 1014.60 1015.34 1016.21 1017.11 1018.15 1019.22 1020.06 1020.76 1021.41 1021.90
998.27 999.00 998.90 999.24 1000.35 1001.17 1001.72 1002.71 1003.37 1003.68 1003.54 1003.45 1004.07 1004.29 1004.24 1004.59 1004.70 1004.80 1004.74 1004.70 1004.43 1004.47 1005.21 1005.43 1005.95 1006.71 1006.84 1007.44 1008.30 1008.78 1009.27 1009.58 1009.59 1009.75 1009.92 1010.34 1010.84 1011.52 1012.08 1012.72 1013.39 1013.99 1014.65 1015.39 1016.09 1017.06 1017.86 1018.77 1019.59 1020.24 1021.02 1021.93 1022.31 1022.99
998.70 999.19 999.12 999.79 1000.60 1001.75 1002.76 1003.13 1003.61 1003.86 1004.34 1005.00 1005.10 1005.62 1005.71 1006.17 1006.19 1006.19 1006.10 1005.70 1005.29 1005.56 1006.17 1007.19 1007.42 1008.08 1008.87 1009.24 1009.76 1010.01 1010.26 1010.60 1010.78 1010.97 1011.32 1011.91 1012.40 1012.88 1013.41 1014.06 1014.86 1015.49 1016.14 1017.01 1017.79 1018.64 1019.35 1019.93 1020.64 1021.41 1022.04 1022.71 1023.29 1023.87
999.21 999.36 999.70 999.83 1000.42 1001.43 1002.83 1003.73 1003.95 1004.85 1005.85 1006.14 1006.68 1006.81 1007.14 1007.76 1008.06 1007.97 1007.48 1006.89 1006.75 1006.69 1007.50 1009.24 1010.69 1011.72 1012.00 1011.71 1011.50 1011.40 1011.42 1011.69 1012.19 1012.80 1013.06 1013.62 1014.13 1014.37 1014.94 1015.68 1016.44 1017.14 1017.84 1018.59 1019.28 1020.03 1020.77 1021.31 1021.81 1022.32 1022.86 1023.38 1023.96 1024.56
999.79 1000.02 1000.17 1000.37 1000.93 1002.09 1003.39 1004.36 1004.47 1005.53 1006.70 1007.86 1008.26 1008.55 1008.94 1009.76 1009.71 1009.47 1009.27 1008.98 1008.58 1009.28 1011.39 1013.16 1014.50 1014.65 1014.10 1013.45 1012.85 1012.64 1012.84 1013.16 1013.38 1013.90 1015.03 1015.69 1015.99 1016.22 1016.84 1017.38 1018.10 1018.84 1019.50 1020.27 1020.94 1021.49 1022.10 1022.79 1023.41 1023.84 1024.19 1024.54 1024.96 1025.48
999.77 1000.66 1001.15 1001.39 1001.94 1002.91 1004.50 1005.20 1005.76 1006.68 1007.53 1008.47 1009.20 1009.46 1010.52 1010.99 1011.12 1011.13 1011.20 1011.26 1011.51 1014.29 1015.83 1016.62 1016.49 1016.38 1015.86 1015.04 1014.54 1014.32 1014.49 1014.61 1015.12 1015.59 1016.46 1017.18 1017.93 1018.18 1018.85 1019.45 1019.87 1020.54 1021.19 1022.00 1022.60 1023.36 1023.81 1024.46 1025.03 1025.37 1025.59 1025.89 1026.05 1026.26
1000.88 1000.57 1000.85 1001.04 1002.81 1004.45 1005.68 1006.23 1006.43 1006.95 1007.81 1008.73 1009.20 1009.99 1011.15 1012.18 1012.86 1013.64 1014.34 1014.80 1017.30 1018.68 1018.42 1018.44 1018.15 1017.65 1017.07 1016.75 1016.72 1016.58 1016.82 1016.71 1017.28 1017.76 1018.37 1018.90 1019.63 1020.27 1020.92 1021.44 1021.73 1022.50 1023.23 1023.94 1024.45 1025.01 1025.55 1026.02 1026.37 1026.66 1026.86 1027.04 1026.99 1027.18
1000.92 1001.19 1002.68 1003.69 1004.87 1006.20 1007.81 1007.13 1007.24 1007.72 1008.37 1009.25 1009.82 1010.82 1012.43 1013.63 1014.86 1015.49 1017.25 1019.09 1020.24 1020.56 1020.02 1019.50 1019.35 1019.06 1018.76 1018.84 1018.49 1018.55 1018.68 1018.69 1019.28 1020.06 1020.69 1021.26 1021.92 1022.55 1022.97 1023.46 1023.85 1024.31 1025.00 1025.77 1026.22 1026.69 1027.21 1027.60 1027.83 1028.01 1028.15 1028.23 1028.26 1028.41
1002.12 1004.30 1006.28 1007.49 1007.82 1009.16 1008.91 1008.90 1008.79 1009.14 1009.67 1010.33 1011.21 1012.46 1013.78 1015.09 1016.40 1018.03 1020.04 1021.39 1022.07 1021.79 1021.17 1020.88 1020.50 1020.38 1020.33 1020.27 1020.60 1020.95 1021.08 1021.11 1021.48 1022.20 1022.89 1023.21 1023.83 1024.80 1025.24 1025.70 1026.09 1026.47 1026.88 1027.40 1027.83 1028.29 1028.66 1028.98 1029.19 1029.35 1029.47 1029.58 1029.71 1029.82
1005.08 1008.83 1009.65 1010.29 1010.25 1010.78 1011.12 1011.28 1011.13 1011.02 1011.60 1011.99 1012.68 1014.11 1015.40 1016.38 1018.15 1020.16 1021.78 1022.94 1023.22 1023.12 1022.82 1022.52 1022.35 1022.20 1022.36 1022.79 1023.04 1023.26 1023.37 1023.22 1023.47 1024.04 1024.98 1025.30 1025.75 1026.38 1026.99 1027.51 1027.90 1028.28 1028.47 1028.74 1029.40 1029.75 1030.05 1030.17 1030.31 1030.48 1030.65 1030.76 1030.94 1030.96
1009.50 1011.48 1011.87 1012.36 1012.50 1012.73 1013.26 1013.78 1013.72 1013.73 1013.67 1014.10 1015.19 1016.36 1017.32 1018.63 1020.47 1022.25 1023.39 1024.09 1024.45 1024.58 1024.50 1024.23 1024.12 1024.26 1024.54 1024.85 1025.03 1025.25 1025.62 1025.53 1025.56 1025.93 1027.18 1027.22 1027.28 1027.53 1028.23 1028.72 1029.15 1029.62 1029.84 1030.01 1030.46 1030.83 1030.99 1031.15 1031.33 1031.49 1031.59 1031.61 1031.66 1031.73
1012.61 1013.50 1013.57 1014.12 1014.21 1014.42 1015.56 1015.89 1015.95 1016.11 1016.53 1017.18 1017.99 1018.82 1019.82 1021.51 1023.03 1024.04 1024.79 1025.33 1025.66 1026.17 1026.17 1026.06 1025.99 1026.17 1026.58 1026.90 1027.08 1027.27 1027.38 1027.41 1027.55 1028.45 1029.13 1029.22 1029.42 1029.63 1029.84 1030.19 1030.38 1030.74 1030.76 1030.94 1031.00 1031.36 1031.50 1031.54 1031.72 1031.93 1032.09 1032.10 1032.09 1032.07
1014.23 1015.13 1016.05 1016.91 1016.90 1017.37 1018.39 1018.99 1019.43 1019.79 1019.75 1019.96 1020.51 1022.17 1023.27 1024.21 1025.36 1025.52 1025.97 1026.62 1026.96 1027.29 1027.59 1027.87 1028.06 1028.24 1028.53 1028.87 1029.07 1029.10 1029.28 1029.35 1029.55 1029.81 1030.15 1030.65 1031.08 1031.35 1031.52 1031.61 1031.63 1031.20 1031.66 1031.80 1031.53 1031.08 1031.00 1031.22 1031.72 1032.18 1032.39 1032.46 1032.39 1031.65
1016.43 1017.27 1017.72 1019.26 1019.37 1020.39 1021.71 1022.37 1022.82 1022.63 1022.37 1022.16 1023.25 1024.41 1025.57 1026.53 1027.04 1026.99 1027.40 1027.69 1027.91 1028.32 1028.89 1029.56 1030.16 1030.16 1030.21 1030.44 1030.64 1030.76 1030.69 1030.60 1030.88 1031.52 1031.86 1032.73 1032.82 1032.95 1032.82 1032.78 1032.90 1032.73 1032.72 1032.46 1031.59 1030.91 1030.48 1030.77 1031.00 1031.81 1032.23 1032.42 1032.11 1031.90
1018.62 1018.62 1019.87 1021.38 1022.66 1024.12 1024.77 1024.75 1024.97 1024.40 1023.55 1023.67 1024.33 1025.71 1026.98 1028.18 1028.61 1028.51 1028.71 1029.11 1029.56 1030.19 1030.80 1031.12 1031.41 1031.37 1032.16 1032.10 1032.54 1032.25 1032.20 1032.03 1032.17 1032.57 1033.03 1033.61 1033.74 1033.76 1033.63 1033.69 1033.78 1034.02 1033.96 1033.62 1032.75 1032.21 1031.86 1032.30 1031.62 1032.06 1032.85 1032.82 1032.97 1033.06
1019.95 1020.38 1022.07 1023.64 1025.14 1026.07 1025.99 1025.82 1025.69 1025.70 1025.77 1026.31 1027.14 1027.82 1029.10 1029.71 1030.09 1030.49 1030.74 1031.22 1031.47 1031.59 1031.90 1032.47 1032.58 1032.77 1032.99 1033.37 1033.66 1033.41 1033.56 1033.23 1033.13 1033.21 1033.31 1033.50 1033.75 1033.97 1034.17 1034.30 1034.18 1034.30 1034.28 1034.06 1033.49 1033.24 1033.22 1033.51 1033.99 1033.83 1033.90 1033.85 1033.80 1033.72
1022.06 1023.13 1023.81 1025.17 1025.98 1025.95 1026.35 1026.70 1027.35 1027.70 1028.23 1028.57 1029.21 1029.51 1030.47 1031.12 1031.87 1031.95 1032.23 1032.41 1032.71 1033.19 1033.29 1033.28 1033.56 1033.64 1033.55 1033.63 1033.76 1033.84 1033.93 1033.95 1033.82 1033.78 1033.69 1033.72 1034.09 1034.06 1033.96 1033.80 1034.00 1034.09 1034.27 1034.18 1033.98 1033.93 1034.03 1034.58 1034.65 1034.57 1034.52 1034.45 1034.32 1034.14
1024.01 1024.10 1024.54 1025.43 1025.95 1026.34 1026.53 1027.10 1028.26 1029.12 1029.31 1029.96 1030.49 1031.18 1032.16 1032.26 1032.66 1032.71 1032.71 1033.30 1033.72 1033.81 1034.08 1033.80 1033.42 1033.35 1033.54 1034.10 1034.34 1034.45 1034.16 1034.29 1034.04 1033.16 1033.19 1033.29 1033.38 1033.41 1033.73 1033.95 1034.09 1034.15 1034.30 1034.24 1034.22 1034.24 1034.42 1034.82 1034.92 1034.91 1034.90 1034.82 1034.63 1034.42
Wind_Speed
9 13 22 27 27 28 27 21 41 42 42 41 40 39 36 34 32 17 8 12 11 6 9 5 2 11 13 18 12 5 9 4 3 6 4 5 5 8 4 4 8 9 8 4 4 4 7 8 5 10 9 0 5 6
17 18 22 25 27 23 22 30 41 41 40 39 37 34 34 32 31 21 4 13 9 4 4 2 8 9 11 8 12 10 7 8 9 5 2 3 2 2 5 4 0 3 7 9 11 10 4 7 5 4 5 5 7 8
14 17 20 23 19 21 31 39 39 38 37 35 34 32 31 32 32 20 6 9 2 2 6 3 7 5 4 7 6 7 2 4 4 2 5 3 4 5 5 6 3 3 3 3 4 6 7 5 2 2 5 5 5 5
30 21 18 19 26 34 35 35 35 34 32 32 30 29 30 30 29 13 6 4 2 5 2 5 2 4 3 7 6 4 6 5 6 3 3 3 4 3 5 3 6 5 8 7 4 5 3 6 7 6 4 6 10 8
28 30 32 33 33 33 32 31 31 30 30 29 28 29 30 27 25 10 4 3 2 3 2 5 8 4 2 3 8 10 8 5 3 3 2 3 1 5 1 3 3 6 8 7 10 10 7 6 9 8 8 6 8 14
23 25 27 28 29 28 28 28 29 28 29 30 29 27 24 26 24 6 3 3 6 2 5 5 5 2 2 4 6 4 8 4 4 5 3 1 1 3 4 4 5 3 1 1 2 6 4 7 8 4 8 7 7 10
20 22 23 23 24 25 25 26 27 28 27 26 25 25 25 26 11 4 5 5 14 6 2 5 4 1 2 3 3 3 4 3 3 3 2 4 2 4 4 4 2 2 3 4 9 8 5 3 6 8 13 13 15 13
15 19 20 19 19 19 22 23 23 22 23 23 23 22 21 24 8 3 2 15 9 5 2 3 5 2 3 2 4 2 3 2 4 3 2 3 2 1 1 4 1 2 8 9 8 5 7 13 12 12 12 15 16 14
18 17 16 17 18 19 20 22 20 23 22 20 26 27 10 3 3 2 10 12 1 5 3 2 2 1 3 2 2 3 1 3 2 2 2 3 1 6 7 8 8 9 7 11 10 9 12 17 14 12 12 11 16 13
17 18 17 17 15 22 29 28 27 28 28 26 12 4 3 3 19 20 6 5 2 0 2 3 2 1 1 2 2 3 2 3 3 3 3 3 5 4 6 5 8 13 14 19 13 7 10 8 13 13 14 12 13 12
15 16 17 20 18 22 25 25 27 29 23 2 3 3 4 20 4 2 3 4 3 2 3 4 3 3 3 4 1 2 3 1 4 3 4 3 4 5 2 4 6 10 7 7 11 10 8 9 13 17 14 12 14 15
14 14 17 20 20 20 20 22 13 4 2 5 4 5 4 4 1 3 3 3 4 6 4 4 4 3 1 4 0 3 4 2 1 3 4 2 4 5 4 6 7 8 10 10 11 15 14 13 12 15 14 14 13 11
14 17 16 16 18 17 18 18 15 11 4 3 5 4 4 1 4 6 4 3 3 1 2 3 3 3 2 2 4 3 5 2 1 2 3 2 1 3 6 9 11 11 14 15 15 15 16 16 15 16 15 11 13 12
17 17 16 17 16 13 10 16 18 10 1 4 1 5 2 4 3 2 2 3 2 1 3 2 4 3 2 2 1 4 2 2 3 1 4 1 3 6 7 8 12 13 13 15 15 14 15 16 15 14 12 10 12 12
13 12 13 13 15 14 15 16 15 6 5 3 3 3 4 0 2 0 1 2 3 1 0 2 4 3 3 4 2 3 3 1 3 4 2 2 6 8 9 10 12 12 11 12 12 14 15 15 16 14 10 11 11 10
14 12 2 12 13 17 18 12 5 1 1 1 6 2 2 4 3 5 3 3 3 1 2 4 4 4 4 3 4 2 4 1 2 2 2 5 9 9 10 10 11 11 12 13 13 14 15 14 14 13 12 10 9 9
12 2 10 18 19 19 15 5 3 2 2 5 5 5 3 3 4 3 4 4 4 3 3 3 5 3 1 4 3 3 2 2 2 3 5 7 10 11 12 13 12 13 14 14 15 14 14 14 12 11 13 10 10 9
5 4 26 28 17 9 2 2 2 3 6 4 4 6 6 7 4 5 5 5 2 3 2 4 2 6 5 4 3 3 3 4 5 6 7 9 11 12 11 14 13 14 15 14 14 13 12 11 11 8 10 10 8 7
6 6 12 13 7 5 3 3 3 5 7 3 4 5 4 3 7 6 7 6 5 5 5 5 7 5 3 3 2 2 3 3 6 8 10 12 11 14 15 15 15 14 14 13 12 9 8 11 8 6 6 5 5 4
19 17 7 4 5 3 5 3 3 5 5 4 4 7 5 5 6 6 10 8 7 6 8 7 5 4 4 4 4 4 5 5 7 10 9 9 9 12 12 11 10 12 11 12 10 9 8 8 7 7 5 5 4 3
6 3 3 6 3 5 4 3 4 3 4 4 2 3 4 6 9 8 8 8 9 7 5 4 5 5 7 8 7 8 10 9 9 8 8 9 8 10 10 9 10 9 9 8 8 8 9 7 6 5 5 4 3 3
2 6 3 5 6 4 4 5 3 2 4 3 3 3 3 4 5 8 5 9 6 5 5 4 6 6 9 14 11 12 11 15 14 12 13 11 10 9 9 8 9 9 9 8 7 7 6 5 5 5 5 3 4 3
4 6 6 7 7 6 2 2 4 4 4 3 3 4 4 4 4 4 6 6 4 5 6 4 7 8 11 12 15 17 14 15 12 11 11 10 10 10 10 10 8 8 8 7 6 6 6 6 6 5 4 5 4 4
8 8 7 6 6 2 2 5 3 3 3 3 3 5 4 4 3 5 5 3 4 7 8 10 6 6 9 14 12 11 10 9 11 11 9 9 10 10 9 9 9 8 7 6 6 6 5 5 5 4 4 3 4 3
11 9 7 8 4 7 6 5 5 4 4 3 4 5 4 3 4 5 3 3 5 7 7 7 8 8 8 8 8 10 12 8 9 11 9 8 8 8 8 8 9 8 5 6 5 5 4 4 4 4 4 4 5 5
10 7 7 6 5 5 3 4 5 5 4 4 5 4 3 4 5 5 3 2 4 5 6 6 6 7 9 8 7 8 8 7 8 11 9 8 7 6 6 6 5 5 5 3 4 4 4 3 4 5 5 5 3 3
8 7 3 5 4 3 5 4 4 5 6 5 3 4 4 6 4 3 3 4 3 4 6 7 7 8 7 7 7 8 8 8 10 9 7 8 9 8 6 5 4 3 3 4 3 3 1 1 1 2 3 3 3 3
5 6 5 7 6 5 5 5 6 6 4 4 4 6 5 3 3 2 3 4 5 6 7 7 8 7 7 6 5 4 6 5 8 7 7 8 7 7 7 5 4 8 4 3 2 2 0 1 2 2 2 3 4 2
4 4 4 8 6 7 8 6 4 4 5 2 5 3 3 3 2 2 4 5 4 5 7 7 5 4 6 7 7 6 4 3 5 7 6 3 4 4 4 3 3 4 4 4 7 6 4 1 2 2 2 3 4 3
5 3 6 5 7 7 5 5 3 5 4 2 5 8 6 4 6 6 6 5 5 5 3 3 1 3 3 4 3 6 6 5 4 5 5 2 3 3 2 3 3 4 3 3 3 4 7 5 6 5 5 5 4 4
2 5 7 6 6 1 5 3 7 8 5 8 6 7 5 3 3 5 6 3 3 3 4 4 5 3 4 4 4 4 4 4 4 3 3 2 1 1 2 2 2 1 1 2 3 3 3 4 4 4 5 5 6 4
5 4 5 5 2 3 2 3 2 3 3 4 4 3 4 5 3 3 3 2 4 4 1 2 4 1 1 1 1 1 2 1 1 0 2 1 1 2 2 2 1 2 3 3 2 2 2 2 2 2 3 5 5 5
4 4 4 4 3 3 3 4 4 2 4 3 2 2 2 4 3 3 1 2 3 3 3 3 2 2 3 3 3 1 1 2 3 1 3 2 1 2 2 1 2 2 2 2 2 1 2 2 2 3 4 4 6 5
Wind_Direction
343 144 151 155 160 166 165 185 162 161 160 164 170 175 177 183 181 173 187 195 238 193 295 326 114 161 178 200 186 171 142 212 70 170 153 212 158 210 127 188 177 156 144 175 85 76 271 168 91 165 214 236 156 151
70 110 136 143 145 150 159 166 153 154 156 161 168 171 175 176 176 174 151 189 248 159 259 284 262 267 222 191 171 192 173 159 177 149 185 110 198 89 148 212 140 218 184 179 178 205 227 208 187 219 170 169 176 146
93 101 109 131 138 154 153 146 143 148 152 160 165 166 167 173 173 169 164 192 207 132 316 269 236 249 181 207 179 163 257 169 164 157 159 172 177 132 154 230 199 213 138 146 100 213 220 220 241 210 172 181 131 121
60 89 105 123 129 127 126 131 137 143 148 154 154 159 166 167 160 142 184 219 95 82 274 273 234 247 181 170 190 170 143 76 95 68 125 165 155 183 193 193 174 190 138 155 283 281 319 247 221 165 127 113 105 91
71 77 83 93 104 111 118 125 132 140 145 145 150 155 153 151 146 145 201 223 204 104 253 289 292 222 283 217 187 190 144 123 126 107 90 190 126 99 318 29 242 193 169 161 215 204 185 204 161 144 133 140 133 124
81 87 92 100 108 115 123 129 131 133 137 140 143 148 147 148 146 172 113 266 174 132 340 335 318 261 324 182 179 181 175 110 98 129 187 132 118 133 132 221 250 225 255 245 210 129 43 101 106 96 115 122 103 111
77 84 90 98 107 113 119 124 129 135 142 142 144 148 149 151 156 101 205 169 137 128 116 308 285 350 47 117 88 71 45 99 125 145 113 150 132 73 106 221 239 78 74 64 106 99 60 217 171 111 109 107 100 95
82 91 94 100 113 117 127 129 135 140 143 146 150 156 158 153 97 308 168 148 118 97 97 253 266 65 341 75 98 34 91 41 22 119 55 118 79 115 233 268 34 116 101 68 29 25 96 101 95 100 113 118 108 111
98 104 105 110 114 121 144 155 146 152 149 154 147 132 115 103 140 206 128 139 61 121 195 188 297 221 357 65 105 62 70 86 323 165 201 114 172 212 198 179 178 214 169 137 101 105 118 120 121 117 114 110 116 121
95 103 111 117 117 109 117 127 128 130 128 122 106 77 131 204 124 116 152 136 226 108 46 244 244 92 357 34 24 94 26 143 152 221 149 104 251 273 239 212 170 186 150 137 123 126 121 139 140 136 129 127 121 117
102 108 117 129 126 122 125 129 134 135 130 92 122 110 93 148 99 52 123 169 139 169 186 228 191 130 354 97 82 264 142 133 127 208 129 227 270 242 180 160 121 127 149 85 84 93 116 134 135 121 111 113 115 115
116 122 121 124 120 120 125 130 120 60 127 175 142 88 92 87 344 84 113 121 184 201 184 169 151 125 112 76 13 287 92 9 148 131 96 237 272 356 73 93 90 103 97 91 108 116 118 118 120 112 116 113 106 109
119 107 103 110 118 128 129 60 65 60 15 352 51 115 156 170 172 161 146 208 225 200 196 151 102 110 85 84 206 170 124 119 179 103 214 232 83 83 106 102 92 91 96 100 99 99 102 103 103 106 102 99 109 100
123 112 113 112 114 115 127 72 64 48 56 341 55 90 167 145 71 146 145 137 111 139 128 115 88 85 174 77 19 71 39 87 103 188 235 268 125 103 104 107 109 104 103 104 104 105 105 102 97 93 99 109 107 107
116 114 112 115 107 101 89 76 53 25 15 4 3 73 55 140 80 100 100 79 39 76 162 98 69 82 50 87 25 99 68 140 180 230 298 82 103 94 85 89 96 98 99 97 100 99 99 101 96 96 86 91 95 99
122 99 146 144 127 120 100 78 56 34 304 220 22 76 45 51 27 33 16 56 11 2 34 49 81 62 43 103 61 47 97 182 343 353 39 84 75 78 85 82 82 89 96 98 96 97 97 98 101 101 90 85 86 95
95 70 141 138 132 111 77 65 47 52 18 27 33 18 12 67 36 31 7 359 334 56 64 77 63 63 137 67 74 19 52 352 342 43 70 86 99 99 95 90 90 91 92 91 90 87 91 96 103 100 99 99 98 94
62 90 133 126 117 102 71 61 101 58 68 30 60 20 51 32 354 21 354 345 357 77 54 61 35 46 37 37 25 17 51 54 55 67 77 89 95 94 92 94 90 89 89 90 93 95 95 91 93 99 107 109 102 101
79 101 142 121 90 94 94 49 19 74 42 22 26 17 43 45 30 19 14 9 37 44 72 40 48 36 13 4 348 21 44 66 83 69 67 67 75 85 87 87 87 86 87 87 84 80 80 82 82 86 92 96 97 97
80 60 74 131 73 87 76 46 47 66 50 51 35 28 38 12 350 17 29 22 34 53 47 43 24 350 330 317 340 61 75 80 92 86 69 58 61 73 73 83 84 89 86 86 79 80 81 71 59 59 56 62 86 77
68 37 88 163 104 66 72 38 66 77 91 72 78 40 66 39 31 25 29 356 45 35 59 21 356 1 3 31 37 55 56 64 66 76 89 80 63 71 71 68 73 73 75 73 75 67 63 67 66 60 60 50 53 63
345 359 65 16 82 70 68 15 75 91 76 108 112 96 90 51 29 31 18 36 62 15 9 3 6 21 45 44 45 53 66 72 68 67 62 67 67 62 59 62 73 72 67 67 72 74 68 61 61 56 55 34 46 46
12 40 43 27 70 51 14 349 54 35 77 59 36 58 50 54 42 18 63 37 47 351 353 9 28 36 53 54 58 53 52 69 70 66 67 68 67 63 63 57 59 74 76 61 60 64 61 52 46 45 36 35 26 24
31 53 50 49 44 82 359 31 32 60 70 68 65 91 80 78 84 64 65 44 0 351 15 16 20 50 53 48 45 41 43 60 72 64 59 74 74 62 61 61 56 53 55 67 61 58 53 49 41 44 33 47 33 35
64 4 62 1 347 52 40 27 20 42 64 53 75 73 66 68 75 71 64 27 3 7 9 25 39 43 61 62 54 49 40 54 72 74 51 69 87 87 74 66 60 48 42 66 52 54 38 38 37 39 34 38 18 356
69 5 33 6 7 55 21 55 38 24 33 61 64 67 59 67 67 63 56 29 15 10 8 19 42 61 54 43 55 44 38 43 72 71 46 37 46 72 84 80 72 57 28 71 87 62 34 31 35 22 3 347 360 8
48 8 20 35 350 52 49 30 31 55 51 41 35 52 66 71 77 79 87 20 47 28 33 34 49 60 67 64 60 56 56 56 67 79 76 57 52 47 56 73 60 31 34 50 72 113 111 359 328 305 303 308 266 239
44 35 48 327 45 25 74 39 33 24 20 15 61 46 86 107 85 48 66 74 77 74 66 57 53 55 59 50 39 50 63 80 94 94 88 67 50 45 33 31 26 39 29 33 55 111 205 262 262 277 273 276 286 277
45 349 66 22 37 41 37 28 15 347 333 43 103 96 95 63 343 48 63 76 70 78 75 73 38 42 67 66 53 38 27 45 86 73 65 18 358 349 5 6 6 9 7 2 346 358 33 89 344 251 302 274 284 309
353 18 82 50 52 42 5 10 353 329 17 84 93 104 75 54 29 35 58 57 67 74 71 81 65 70 85 79 51 44 29 29 63 117 124 135 226 265 334 345 341 339 356 35 21 351 9 26 8 14 14 6 6 357
360 56 65 55 71 339 128 116 69 62 39 57 51 79 84 109 47 40 44 29 62 61 79 61 50 28 87 67 91 74 25 352 37 62 95 125 146 262 278 276 266 286 39 57 50 52 42 25 23 10 6 1 351 358
26 56 115 97 142 227 70 69 77 70 11 44 14 62 27 52 55 335 347 30 47 60 48 126 96 46 206 160 99 106 128 214 340 43 145 137 268 270 282 306 349 57 59 53 47 56 67 50 4 358 339 333 325 324
47 41 55 89 79 143 230 93 35 68 29 49 24 110 124 132 147 239 312 75 144 178 200 206 199 157 146 140 143 195 245 242 279 22 71 69 71 0 353 5 30 63 82 68 50 63 24 10 337 315 313 315 312 309